This is the latest recevied weather packets stored in our database for station/object K2ATL. If no packets are shown the sender has not sent any weather packets the latest 1 day(s).
| Time | Temp. | Humidity | Pressure | Rain* | Wind** | Luminosity | Snow |
|---|---|---|---|---|---|---|---|
| 1777985179 | 15.56° C | 56% | 1100.3 hPa | 0 mm | 0.89 m/s, 136° | 199 W/m² | - |
| 1777984875 | 15.56° C | 57% | 1100.6 hPa | 0 mm | 0.45 m/s, 144° | 223 W/m² | - |
| 1777984571 | 15° C | 58% | 1100.6 hPa | 0 mm | 0.89 m/s, 133° | 155 W/m² | - |
| 1777984268 | 15° C | 58% | 1100.2 hPa | 0 mm | 0 m/s | 164 W/m² | - |
| 1777983965 | 14.44° C | 59% | 1100.4 hPa | 0 mm | 0.89 m/s, 138° | 138 W/m² | - |
| 1777983662 | 15° C | 59% | 1100.4 hPa | 0 mm | 0.45 m/s, 119° | 111 W/m² | - |
| 1777983358 | 14.44° C | 59% | 1100.4 hPa | 0 mm | 0.45 m/s, 51° | 86 W/m² | - |
| 1777983055 | 14.44° C | 59% | 1100.4 hPa | 0 mm | 0.45 m/s, 137° | 81 W/m² | - |
| 1777982752 | 13.89° C | 59% | 1100.4 hPa | 0 mm | 0 m/s | 75 W/m² | - |
| 1777982447 | 14.44° C | 59% | 1100.3 hPa | 0 mm | 0.89 m/s, 138° | 68 W/m² | - |
| 1777982142 | 14.44° C | 60% | 1100.3 hPa | 0 mm | 0.89 m/s, 138° | 51 W/m² | - |
| 1777981840 | 13.89° C | 59% | 1100.4 hPa | 0 mm | 0.45 m/s, 131° | 40 W/m² | - |
| 1777981536 | 14.44° C | 59% | 1100.3 hPa | 0 mm | 0.89 m/s, 139° | 38 W/m² | - |
| 1777981233 | 13.89° C | 59% | 1100.2 hPa | 0 mm | 0.89 m/s, 137° | 37 W/m² | - |
| 1777980929 | 14.44° C | 59% | 1100.1 hPa | 0 mm | 0.89 m/s, 140° | 34 W/m² | - |
| 1777980626 | 14.44° C | 58% | 1100.1 hPa | 0 mm | 0.89 m/s, 139° | 32 W/m² | - |
| 1777980323 | 14.44° C | 58% | 1100 hPa | 0 mm | 0.89 m/s, 145° | 29 W/m² | - |
| 1777980021 | 14.44° C | 58% | 1099.9 hPa | 0 mm | 0.89 m/s, 143° | 26 W/m² | - |
| 1777979720 | 14.44° C | 57% | 1099.7 hPa | 0 mm | 1.34 m/s, 144° | 22 W/m² | - |
| 1777979416 | 14.44° C | 56% | 1099.7 hPa | 0 mm | 0.89 m/s, 138° | 19 W/m² | - |
| 1777979113 | 14.44° C | 56% | 1099.7 hPa | 0 mm | 1.34 m/s, 139° | 16 W/m² | - |
| 1777978810 | 15° C | 56% | 1099.7 hPa | 0 mm | 1.34 m/s, 138° | 12 W/m² | - |
| 1777978506 | 15° C | 56% | 1099.7 hPa | 0 mm | 1.79 m/s, 136° | 8 W/m² | - |
| 1777978202 | 15° C | 55% | 1099.6 hPa | 0 mm | 0.45 m/s, 115° | 5 W/m² | - |
| 1777977899 | 15° C | 55% | 1099.6 hPa | 0 mm | 1.34 m/s, 115° | 3 W/m² | - |
* Rain latest hour (hover to see other rain measurements)
** Current wind speed in m/s (hover to see current wind gust speed)